FENGYUN 1C DEB, 32361

Orbit data source: Space-Track

FENGYUN 1C DEB, 32361 is space debris in SSO originally from a launch on Mon, 10 May 1999 UTC launched from the Taiyaun Space Center, China (TSC). Fengyun 1C debris stems from the Chinese weather satellite Fengyun-1C, which was intentionally destroyed by a Chinese anti-satellite missile in 2007. This event dramatically increased the amount of space debris, with thousands of trackable fragments posing hazards to satellites and human spaceflight. The Fengyun 1C debris cloud has become a focal point in discussions about space sustainability and the need for international regulations to prevent the creation of new debris.

Loading next visibility...
Identifier
32361, 1999-025CZE
Orbit
SSO
Country
Flag of CNCN / PRC
Related business
Manufacturer
Unknown
Mission
Spacecraft
Bus & Motor
Unknown
Mass
Unknown
Launch date (UTC)
1999-05-10 (27 years ago)
Launch vehicle
Unknown
Launch site
Taiyaun Space Center, China (TSC)
Object type
Payload
Rocket body
Debris
Shape & HBR
Unknown shape, 0.1 m
Radar Cross Section
Small (<0.1 m²)

Expand to show TLE details & history
Last TLE update: 22 hours ago

TLE from 22 hours ago
0 FENGYUN 1C DEB
1 32361U 99025CZE 26235.66330409  .00004390  00000-0  10278-2 0  9995
2 32361  98.8438 313.5920 0042203 356.3070   3.7808 14.54602884   306
Epoch: 2026-08-23T15:55Z
TLE epoch observation values (Epoch: 2026-08-23T15:55:09.473Z)
Latitude
0.00003°
Longitude
102.8464°
Altitude
683.755 km
Speed
7.53 km/s
True Right ascension
20h 54m 22s
True Declination
0° 00' 00"
Sunlit
Object was in full shadow at epoch
Visualization orbit readout
Latitude
Unknown
Longitude
Unknown
Altitude
Unknown
Speed
Unknown
Apparent Right ascension
Unknown
Apparent Declination
Unknown
Sunlit
N/A
Visualization observer readout
Local Sidereal Time
04:58:39
Azimuth
Unknown
Elevation
Unknown
Doppler factor
Unknown
Orbital elements
Apogee altitude
737.678 km
Perigee altitude
677.869 km
Semi-major axis
7,085.911 km
Eccentricity
0.00422
Inclination
98.8438°
RAAN
313.592°
Arg. of periapsis
356.307°
True anomaly
3.81286°
Mean anomaly
3.7808°
Eccentric anomaly
3.79681°
Mean motion
3.63873 °/min
Orbital period
98.94 mins
BSTAR
0.0010278
Loading maneuver chart data...
Computing Atmospheric mass density...

Documentation

Showing up to 5 results
|